Wind_Speed
11 11 8 8 11 9 6 3 1 3 3 1 2 2 5 4 3 6 8 6 1 2 4 3 4 5 7 9 11 11 9 3 3 3 3 5 17 24 25 30 31 28 28 24 23 22 20 20 19 20 19 19 18 16 16 14 13 13 13 13 13 15 17 21 23 23 23 22 19 18 18 18 17 17 17 18 18 17 17 16 15 15 16 16 15 15 15 15 14 14 14 14 14 16 19 17 16
11 10 9 8 8 4 2 2 2 2 2 2 3 3 5 2 5 8 9 3 6 2 3 9 11 12 12 12 9 10 12 8 8 7 7 18 23 21 26 31 31 30 28 25 25 23 22 21 20 20 19 19 18 17 15 13 13 12 12 12 13 15 18 20 22 22 22 19 18 18 18 18 17 17 18 18 18 18 17 16 15 15 16 15 15 15 15 14 14 14 14 14 14 16 18 16 14
11 10 8 6 4 2 1 2 2 2 3 4 4 5 4 3 6 8 7 4 11 7 8 10 9 7 7 8 6 7 7 6 12 11 10 19 17 17 27 30 30 29 27 26 25 23 23 21 20 20 19 19 18 17 15 13 12 12 12 12 14 16 18 20 20 20 20 18 17 18 18 17 17 18 18 18 18 19 17 16 15 15 15 15 15 14 14 14 14 14 14 13 14 16 16 13 12
10 9 8 4 3 3 3 2 2 4 4 5 3 6 4 4 8 7 6 5 11 7 6 6 5 4 7 12 6 7 9 6 11 10 8 12 17 23 29 29 29 28 26 25 24 24 22 21 20 20 20 19 18 17 15 13 12 12 12 12 14 16 18 20 19 18 19 18 17 17 17 17 17 17 18 18 18 18 18 16 16 15 15 15 14 14 14 14 14 13 13 12 14 14 13 11 10
8 8 5 3 3 1 2 1 2 4 5 4 3 7 4 6 8 9 7 2 7 8 7 4 4 4 8 8 1 4 8 9 10 11 12 16 26 30 29 29 29 27 24 24 24 24 22 21 20 21 20 19 19 17 15 14 12 12 12 13 15 16 18 20 18 17 18 18 16 16 16 17 17 17 17 17 17 17 18 17 16 15 14 14 14 14 13 14 13 12 12 12 12 11 10 9 9
7 6 2 2 1 1 1 1 3 3 6 5 3 6 1 4 7 9 6 4 6 8 8 6 7 6 6 5 4 5 8 11 10 12 19 24 29 31 29 29 28 24 23 24 24 23 22 20 20 21 20 20 19 17 16 14 12 12 13 14 15 16 18 19 17 16 17 17 16 16 16 16 16 16 17 17 17 17 17 16 15 15 14 13 13 13 12 12 11 10 10 10 10 9 9 9 9
6 4 2 1 1 0 3 3 5 4 6 5 6 6 3 6 7 7 5 4 7 5 7 9 12 11 6 3 4 9 13 17 14 16 27 31 30 29 28 27 26 24 24 25 24 23 22 20 21 21 20 20 19 18 17 14 13 13 13 15 16 16 15 16 17 17 17 16 16 16 16 16 16 16 16 16 16 15 15 14 13 13 13 12 12 11 10 10 9 8 8 8 9 9 10 10 9
4 2 1 3 1 1 2 3 4 4 5 5 6 7 5 10 10 6 6 2 4 3 9 10 11 13 6 5 5 10 20 24 24 27 34 34 30 29 27 28 27 24 24 25 24 23 22 21 21 20 20 19 19 18 16 15 13 13 14 16 17 16 14 15 16 17 17 16 16 16 15 15 15 15 15 15 14 13 13 12 11 10 11 11 11 10 9 8 7 7 6 6 8 9 10 10 9
2 1 1 3 1 2 1 4 5 5 5 5 7 8 8 11 10 6 7 2 6 6 8 7 8 13 6 11 10 9 20 29 33 33 34 33 31 30 29 28 27 25 25 25 24 23 22 21 20 20 20 20 19 18 16 14 13 13 15 16 17 17 16 15 16 18 18 17 16 16 14 14 15 14 14 14 13 12 12 11 10 9 9 9 9 8 7 7 6 6 5 5 7 10 11 10 10
2 1 1 1 2 1 4 4 5 4 5 6 7 10 11 12 9 8 8 3 9 7 6 7 11 14 11 11 8 7 19 30 33 31 33 33 30 30 29 27 25 26 27 26 25 24 23 21 20 20 20 20 19 17 15 14 14 14 15 16 18 18 17 16 17 18 18 17 17 16 15 14 14 14 12 12 11 11 10 11 10 8 8 9 9 8 7 6 5 5 5 5 8 12 12 11 10
2 2 2 1 1 2 4 4 6 5 7 6 8 11 11 13 10 10 7 5 11 11 10 11 14 14 14 8 5 12 23 27 29 30 32 31 29 29 28 26 24 26 28 27 26 23 23 22 21 21 20 19 17 16 15 15 15 14 15 17 18 17 18 17 17 18 17 17 16 15 15 14 14 13 12 11 11 10 9 9 9 8 7 8 9 8 7 6 6 6 5 5 9 14 14 12 11
2 3 2 2 2 4 4 3 6 7 8 7 9 10 10 13 10 11 7 7 12 12 8 8 10 12 13 5 4 13 20 21 25 28 28 29 28 27 26 26 24 24 26 26 25 24 23 22 21 19 18 17 16 15 15 15 14 14 15 17 18 18 18 17 16 17 17 16 15 14 14 14 13 13 12 10 9 8 7 7 7 7 6 7 8 8 7 7 7 6 6 6 10 15 16 14 12
2 2 3 2 3 3 2 3 5 6 7 7 9 10 9 11 10 11 5 7 11 9 4 10 14 11 10 5 6 9 13 17 24 27 26 28 28 27 26 25 24 23 25 26 25 24 22 22 20 18 17 15 15 14 14 14 13 13 15 16 18 18 18 17 16 17 17 16 15 13 12 12 12 11 10 9 8 6 5 5 5 5 5 6 7 7 7 7 7 6 7 7 11 17 17 15 12
3 2 4 1 2 1 3 3 4 4 7 9 8 7 7 8 8 7 8 10 7 6 5 12 16 14 11 7 7 6 9 16 26 28 27 29 28 27 25 24 24 24 24 24 24 23 22 20 19 18 16 15 14 13 13 12 13 13 15 16 17 17 17 16 15 15 16 15 15 13 12 10 9 9 8 6 5 4 3 3 4 5 4 5 6 6 6 6 6 6 7 8 12 18 19 16 12
4 1 4 1 3 2 3 3 4 3 7 10 7 4 2 1 2 7 13 14 8 6 8 9 9 11 11 10 9 9 14 23 30 32 30 29 27 25 23 23 24 24 23 23 23 22 21 20 18 18 17 15 14 13 13 12 12 13 14 14 15 16 15 14 14 13 14 14 13 13 11 8 7 6 5 4 3 2 1 2 4 5 4 4 5 5 5 5 6 6 7 9 14 19 19 16 13
3 2 2 1 3 3 3 3 4 4 6 8 7 3 4 7 6 6 7 15 10 4 5 2 0 7 11 11 15 20 27 31 33 34 30 28 25 23 22 22 23 22 22 22 22 21 20 19 18 17 17 15 13 12 12 12 12 12 12 13 14 13 12 12 11 10 10 11 11 11 10 8 6 5 4 3 2 2 2 2 4 6 5 5 4 4 4 5 5 7 7 10 15 19 19 16 12
1 2 2 3 4 4 4 3 3 3 6 7 8 3 7 7 7 6 7 16 14 9 9 6 7 12 12 16 26 32 35 35 35 33 27 24 23 22 21 22 23 22 21 19 19 19 18 18 17 17 15 14 12 12 12 12 12 10 10 11 11 11 10 9 8 7 7 7 8 8 8 7 5 5 5 5 4 4 4 3 5 7 6 5 4 4 4 4 5 6 7 10 16 19 18 14 11
2 2 3 4 4 4 4 4 4 3 7 8 7 4 6 9 7 6 9 14 17 15 13 14 16 16 19 27 34 34 35 35 33 29 22 19 19 18 19 20 22 20 19 18 17 17 17 17 16 15 14 13 12 12 12 13 12 10 10 11 10 10 9 9 7 6 6 6 7 7 6 4 3 3 4 4 5 5 5 4 5 7 7 5 4 4 4 3 4 5 7 10 16 18 16 13 11
3 3 3 5 4 3 3 4 6 5 8 9 7 6 2 10 8 4 7 11 17 18 12 16 19 17 22 27 29 28 31 30 28 26 20 17 17 17 16 17 18 18 19 19 17 16 16 17 16 15 14 13 13 12 12 13 12 11 11 11 10 10 9 8 7 6 4 5 5 5 5 3 3 4 3 2 3 5 6 6 6 8 8 6 5 4 3 3 4 5 7 12 16 18 16 13 11
3 4 3 5 4 3 6 6 8 9 9 8 7 6 1 6 7 6 11 12 15 17 13 16 18 18 20 21 22 24 25 25 25 24 19 16 16 17 17 16 17 19 20 20 18 16 15 16 15 14 14 13 13 12 12 12 12 11 11 10 10 10 9 8 7 6 4 3 4 5 5 4 4 5 4 2 2 2 4 5 7 9 10 8 6 4 3 3 4 5 9 14 17 17 15 13 11
2 4 4 5 3 4 7 6 10 12 8 5 6 6 5 2 6 11 16 13 8 11 14 19 21 20 21 19 19 21 21 21 21 19 16 15 13 15 16 16 17 19 20 19 18 17 16 16 14 14 13 12 11 11 12 11 11 11 11 10 9 9 8 8 7 6 6 5 5 6 7 6 5 5 4 5 5 3 3 4 7 10 11 10 8 6 5 4 4 6 10 16 18 17 16 13 10
2 3 5 6 4 5 8 7 10 10 6 3 5 6 5 4 6 12 16 13 7 9 13 19 22 20 20 19 18 18 18 16 16 17 15 14 12 13 14 14 15 18 18 17 18 18 17 15 14 14 13 12 11 11 11 11 11 11 11 10 9 9 8 8 8 8 7 7 7 8 9 7 5 5 6 7 7 6 5 3 5 9 12 12 10 8 6 5 6 6 9 14 17 17 16 11 6
3 5 4 7 7 6 7 6 9 5 3 5 4 3 3 5 6 5 10 11 10 13 16 18 19 19 21 20 18 16 14 13 14 16 16 15 12 12 13 13 14 17 17 16 18 18 17 16 15 15 14 12 11 11 12 12 11 11 10 10 10 9 9 9 9 10 9 8 8 9 10 8 5 5 8 10 10 8 7 4 3 7 12 13 11 9 7 6 7 7 8 11 14 14 13 8 5
5 6 5 7 7 8 7 6 10 6 3 4 3 4 5 7 6 5 10 13 15 17 17 18 18 19 21 18 16 15 14 13 15 16 16 14 12 11 12 12 13 16 17 17 19 19 18 18 17 16 15 13 11 11 12 12 12 11 11 10 10 10 10 10 10 11 11 10 10 11 11 9 7 7 9 12 12 11 9 6 4 5 10 13 13 11 9 8 8 8 8 9 11 12 10 9 9
6 8 8 6 6 8 7 7 10 8 4 4 5 7 6 7 8 10 13 16 17 17 16 17 18 17 18 17 16 14 12 12 14 15 13 11 12 12 12 14 15 17 20 20 21 21 20 19 17 16 16 15 12 11 12 12 12 12 11 11 11 11 11 11 10 11 11 12 13 13 13 11 10 10 11 13 14 13 11 9 7 5 7 11 14 13 12 10 9 9 8 8 10 11 11 11 10
6 9 9 7 7 7 5 6 8 5 3 4 7 6 6 8 9 11 12 17 16 16 17 16 17 16 16 16 15 13 11 11 13 16 16 15 16 16 18 20 20 20 23 23 23 23 21 18 16 15 15 14 12 11 11 11 11 12 12 11 11 11 11 11 11 11 13 15 15 15 14 13 13 13 14 14 14 14 13 12 10 8 7 9 12 14 14 13 11 10 9 9 10 11 11 11 12
5 5 7 8 8 6 4 5 7 3 2 3 1 4 5 5 5 7 8 16 18 16 16 13 16 16 15 15 13 12 11 12 15 18 18 17 19 20 20 20 18 16 18 19 20 21 18 14 12 12 12 12 11 11 11 12 11 12 13 12 11 10 10 11 12 13 14 16 16 16 15 15 15 16 16 15 14 14 14 14 14 12 10 10 11 12 13 14 14 13 12 12 13 13 12 12 14
6 6 6 8 8 7 3 4 6 2 1 4 5 3 2 3 7 11 10 13 17 18 16 13 15 14 14 15 12 11 11 13 18 18 16 15 16 17 15 14 14 13 14 15 17 19 17 13 12 12 11 10 10 10 10 11 11 12 13 13 12 11 11 12 13 14 15 15 15 15 15 16 16 17 16 15 14 14 13 14 15 16 15 13 12 12 12 14 15 15 15 15 16 16 15 16 16
6 5 3 8 5 5 5 4 5 4 2 4 7 2 7 3 10 15 12 11 14 18 17 14 14 13 13 13 11 9 11 14 15 14 13 12 12 13 13 12 15 15 15 15 15 16 16 14 13 13 12 11 10 9 8 9 10 12 13 14 12 12 13 13 13 14 15 14 15 14 14 15 16 17 16 16 15 14 13 13 15 17 17 16 14 13 13 14 16 17 17 18 19 18 18 19 19
5 3 3 4 4 4 6 4 5 5 5 5 7 0 7 1 12 15 13 13 15 15 14 13 12 12 12 11 11 9 10 11 11 11 11 9 9 11 13 12 14 14 13 12 12 12 13 12 11 11 10 10 10 9 8 9 9 10 12 12 12 12 13 13 13 14 14 14 15 15 14 15 17 16 15 16 15 14 13 14 15 16 17 17 17 17 16 16 17 17 17 18 19 19 20 20 20
4 3 1 1 1 4 8 2 7 5 4 6 9 3 5 2 10 14 15 15 17 15 12 12 11 11 11 10 11 9 8 10 11 11 11 9 9 11 13 12 11 11 9 8 9 10 10 9 9 8 7 7 8 9 8 9 8 8 9 10 10 11 11 11 12 12 12 14 15 16 16 16 18 18 16 16 16 15 14 14 15 15 15 17 19 19 19 19 19 18 18 18 18 18 19 20 19
1 1 3 1 3 4 8 2 8 6 2 6 9 3 3 4 9 11 16 16 17 16 11 12 12 12 12 10 11 8 8 12 13 12 10 10 10 11 13 13 11 11 10 8 8 8 8 8 7 6 5 5 7 7 7 7 7 7 7 7 8 9 10 10 10 11 11 12 14 15 15 16 17 16 15 16 16 15 16 16 15 14 13 15 17 19 21 21 21 21 20 19 18 17 17 19 19
2 2 2 1 3 3 4 4 5 8 3 4 6 3 1 6 12 11 15 17 18 16 12 14 14 13 12 9 9 8 8 10 11 11 10 11 11 11 12 11 11 11 11 10 10 9 8 9 7 6 5 5 6 6 6 7 7 6 6 5 6 8 8 8 9 11 11 11 13 13 13 14 15 15 14 15 15 15 16 16 15 14 14 15 16 19 20 22 22 22 22 21 20 19 18 19 19
3 0 2 2 3 3 2 4 4 5 5 2 5 4 4 6 14 14 16 18 18 16 15 16 14 11 10 9 9 8 8 8 8 8 10 12 13 12 11 10 10 10 10 11 11 10 10 11 9 8 7 7 7 6 7 8 7 5 6 5 5 6 6 7 8 10 11 10 11 11 11 12 13 14 15 15 14 15 15 16 16 16 17 17 18 19 20 22 22 22 23 22 21 20 20 20 20
3 2 2 2 3 3 4 4 3 5 5 2 3 5 7 9 13 13 12 15 17 16 15 14 12 11 10 9 9 9 9 8 6 7 10 12 12 12 11 11 11 9 9 9 10 9 9 10 9 9 9 8 6 5 7 7 7 6 7 5 6 7 7 8 9 10 10 10 10 10 10 12 12 13 14 15 15 16 16 17 17 17 19 20 20 20 21 21 22 22 23 22 22 21 21 21 21
6 5 4 4 4 3 4 4 4 7 5 5 7 6 7 8 9 9 5 7 15 15 13 12 11 11 10 9 9 9 9 8 8 10 12 13 13 14 14 16 15 13 10 8 9 8 9 9 8 10 10 8 6 5 6 5 6 8 7 7 9 9 8 9 10 10 10 10 10 10 11 12 13 13 14 15 16 17 18 18 18 19 19 20 20 21 22 22 22 22 22 22 22 22 22 21 19
6 4 4 5 5 4 4 5 8 6 7 5 8 10 9 7 7 10 7 7 13 14 13 12 11 11 10 11 10 10 9 8 13 18 18 19 18 18 18 19 19 17 15 13 11 10 10 10 10 12 12 9 7 6 5 4 4 5 6 7 9 9 8 8 9 10 10 10 10 10 11 12 12 13 13 14 16 17 18 19 20 20 20 21 23 23 23 23 22 22 22 22 21 21 23 22 20
5 4 3 4 3 5 5 6 8 5 8 3 10 14 11 8 7 8 10 11 11 10 12 13 13 13 11 11 11 10 8 8 14 17 19 22 21 21 22 21 22 21 20 19 18 16 14 12 14 15 13 11 9 7 6 5 4 3 4 5 5 7 7 6 7 8 10 10 10 10 10 10 10 10 12 14 16 18 19 19 20 20 21 22 21 21 21 21 22 22 23 23 21 20 22 23 21
5 3 3 4 3 2 4 5 6 6 8 4 12 15 9 9 9 8 8 10 9 10 12 13 14 14 11 10 10 8 9 10 11 12 15 19 20 22 23 23 23 23 22 22 21 21 19 18 18 18 15 13 11 9 7 6 4 3 3 3 2 3 4 3 4 5 7 8 9 10 10 10 10 10 11 14 16 17 19 21 22 23 23 23 21 20 21 22 23 24 23 22 20 20 22 23 21
4 4 3 4 3 3 3 5 4 7 7 9 14 13 6 8 9 9 9 9 12 12 12 12 11 12 10 9 9 8 9 9 9 10 12 16 19 20 22 22 22 24 24 23 22 22 22 21 20 19 17 15 12 9 8 6 5 4 3 2 1 2 1 2 3 4 5 6 7 8 9 10 10 11 12 14 16 16 18 21 23 24 24 24 24 24 25 25 25 26 25 23 21 20 21 23 22
5 6 7 6 4 5 4 2 5 9 7 13 17 9 2 4 6 7 8 9 11 11 12 13 10 10 10 9 10 9 9 8 9 10 9 13 17 18 20 21 22 24 24 23 23 22 21 20 19 17 16 15 13 10 9 8 7 7 6 5 4 4 3 4 6 7 7 7 7 7 9 8 8 9 11 13 13 13 16 20 22 23 23 24 26 26 25 26 26 27 27 25 24 22 22 24 23
5 7 11 11 6 5 5 1 7 8 3 7 11 7 2 2 4 7 7 8 10 9 12 14 11 9 9 9 10 9 9 8 8 10 10 12 16 17 19 21 22 23 22 21 21 20 20 19 18 16 15 14 13 11 10 10 10 11 11 12 12 11 11 10 10 10 10 10 9 9 9 9 9 9 10 11 12 12 14 17 20 22 22 22 25 26 25 25 26 27 27 25 24 24 25 24 24
5 6 11 11 7 6 6 3 6 6 5 8 5 6 3 3 3 6 7 10 11 10 11 12 11 9 8 8 8 8 9 8 8 10 10 12 15 17 18 19 20 21 21 21 20 20 19 18 16 16 15 14 13 11 11 11 12 13 14 15 14 14 13 13 13 12 11 11 11 11 11 12 13 12 11 11 12 12 12 14 16 17 19 20 23 25 23 23 25 26 27 25 24 26 26 24 26
5 6 8 8 7 8 8 6 7 3 5 7 1 5 6 3 5 6 7 10 10 10 11 10 10 10 9 8 8 9 8 7 8 8 8 11 15 16 17 18 19 19 20 21 21 20 19 17 15 13 13 13 13 12 12 13 13 13 14 14 14 14 13 13 13 12 11 11 11 12 12 13 14 14 13 13 14 13 12 13 13 15 17 19 21 22 23 24 25 25 26 26 24 23 24 26 28
8 6 7 7 8 9 8 7 6 3 6 6 2 6 6 2 5 7 7 8 8 9 10 11 11 11 10 10 10 10 9 7 8 8 9 12 14 16 17 17 18 18 18 18 19 18 17 16 15 13 13 13 13 13 13 14 13 13 13 13 13 14 13 13 13 12 12 13 13 13 13 14 13 13 13 14 15 15 15 15 14 15 17 18 18 19 20 21 22 23 24 24 22 21 23 26 28
7 6 5 4 5 6 8 6 5 6 6 7 9 8 5 2 5 8 8 8 8 8 9 11 12 11 11 11 11 10 9 7 8 10 11 13 15 16 17 18 19 18 17 17 17 16 14 14 14 15 15 15 15 15 15 16 14 13 13 13 13 13 13 12 12 13 14 15 15 15 15 15 15 14 13 14 15 15 15 15 14 15 15 16 16 17 18 20 20 21 22 22 21 20 21 22 24
6 5 6 2 3 2 3 2 4 5 4 8 13 10 5 4 6 9 7 6 11 11 9 11 12 11 11 10 10 9 8 7 7 9 12 14 15 17 19 20 21 19 16 16 16 16 14 12 12 14 15 16 16 16 17 19 19 18 18 17 15 13 12 12 13 15 16 16 17 17 16 16 16 15 15 16 16 16 17 16 16 15 15 15 16 17 18 19 19 19 20 21 21 21 20 21 23
7 4 4 3 1 3 1 2 3 5 5 7 10 7 4 4 6 9 6 3 11 13 11 14 14 12 11 9 10 9 8 8 7 7 9 11 13 15 18 20 20 18 15 13 14 16 16 15 13 14 14 16 18 18 18 18 19 19 20 20 18 16 14 13 15 16 16 17 18 17 17 17 17 15 15 17 17 17 18 18 18 18 17 17 17 18 18 18 19 20 20 21 21 21 21 22 23
8 5 4 4 1 2 3 2 2 4 5 5 9 6 1 2 2 5 6 7 11 10 9 13 14 13 12 10 10 9 7 8 8 7 7 8 10 12 16 18 19 16 12 11 12 14 15 17 17 16 16 17 20 21 20 19 19 18 19 20 20 19 18 17 17 17 17 17 17 18 18 19 18 16 16 18 18 18 19 19 20 19 18 18 19 20 19 18 18 19 20 21 22 22 22 22 23
8 6 5 5 4 4 4 3 1 3 3 2 5 7 1 1 2 0 6 10 10 10 9 10 12 12 12 10 9 8 8 8 7 7 6 6 9 11 13 16 17 13 9 9 12 12 14 18 19 17 17 19 21 22 22 22 22 20 20 19 18 19 20 20 19 18 17 17 18 18 18 18 18 18 18 19 19 18 18 18 18 19 19 19 19 20 20 19 18 18 19 20 21 23 22 22 23
7 5 6 5 5 5 4 3 3 4 3 4 3 3 1 0 1 3 8 10 9 10 10 10 11 10 9 8 8 8 7 7 7 7 7 8 11 11 11 15 16 11 8 10 14 14 15 18 20 20 20 21 22 23 23 23 23 22 21 21 19 19 20 20 19 18 16 17 18 18 18 18 18 18 18 18 19 19 19 18 18 19 19 19 20 20 21 21 20 19 20 21 21 21 20 21 21
5 3 6 5 6 5 2 4 5 5 4 3 3 1 1 2 4 5 10 11 11 11 10 11 11 9 9 7 6 7 6 6 6 7 7 9 11 12 12 14 14 12 12 15 18 18 17 19 21 22 22 22 23 23 23 24 24 23 23 22 22 21 21 21 20 19 18 18 19 19 18 18 17 17 17 18 19 19 20 19 18 19 19 20 21 21 22 22 22 21 23 23 23 22 20 20 21
3 3 4 5 6 7 4 3 2 4 5 1 1 3 2 2 3 6 11 12 12 11 10 11 10 9 9 7 6 6 6 5 5 5 6 8 10 12 12 13 14 17 18 19 20 19 19 20 22 23 23 23 23 23 23 24 24 24 24 23 23 22 22 22 21 21 20 19 20 20 19 19 18 18 18 18 19 19 20 20 20 19 18 21 22 21 22 23 21 21 22 23 24 23 21 21 20
5 5 6 4 4 3 4 3 0 3 4 1 1 4 6 3 2 6 12 13 12 11 11 11 10 9 9 7 6 6 6 5 5 5 6 8 10 10 9 11 15 19 20 20 19 19 20 21 22 23 23 24 25 24 24 24 24 25 24 24 24 23 22 22 22 21 21 21 21 21 21 21 20 20 20 19 19 20 20 21 21 20 19 20 22 21 23 25 24 23 22 22 23 23 22 21 20
5 6 6 5 4 2 1 4 3 2 3 0 1 5 5 3 4 9 13 14 13 11 11 11 10 9 8 8 7 7 6 5 4 4 4 6 8 9 11 14 18 19 19 19 19 19 20 21 22 23 24 24 25 25 25 25 25 25 25 24 24 23 23 23 22 22 22 23 23 22 22 22 22 22 22 22 21 21 21 22 22 23 21 20 21 23 26 27 27 26 25 24 24 23 22 22 21
4 4 2 2 4 4 3 4 3 5 4 2 4 5 3 3 6 12 15 15 15 13 11 11 11 10 8 7 7 6 5 4 4 4 3 6 10 13 15 18 18 18 17 17 18 19 20 20 21 24 25 25 25 25 25 25 25 25 25 25 24 23 23 23 23 23 23 23 23 22 23 23 23 24 24 24 24 23 23 23 23 25 25 22 23 27 28 29 29 29 29 28 26 25 24 23 22
3 3 2 1 1 2 3 2 2 5 5 3 4 4 4 2 5 11 15 15 14 13 12 10 10 10 8 7 7 6 5 5 4 3 4 8 14 17 18 19 18 18 17 17 17 19 21 22 24 25 25 25 25 25 25 24 24 24 24 24 24 24 23 23 23 23 22 22 22 22 23 23 23 24 25 25 25 24 24 23 23 25 26 23 26 31 32 33 34 33 32 30 29 28 27 25 23
6 5 4 4 3 4 4 2 2 3 5 5 5 4 4 2 2 7 13 12 12 12 12 11 11 11 9 7 7 6 4 4 3 3 6 10 14 17 19 19 18 18 19 19 19 21 24 26 26 25 24 24 24 24 25 24 24 24 23 22 22 23 23 23 23 23 23 22 21 22 23 23 23 24 24 25 25 24 24 23 23 24 24 24 29 33 33 35 36 35 34 33 31 30 29 27 26
Wind_Direction
289 293 299 311 326 340 344 58 67 321 97 163 243 246 263 229 263 291 288 269 156 335 307 60 80 98 106 110 119 88 46 35 119 120 158 130 125 138 145 141 138 136 139 142 145 146 144 141 138 141 143 145 147 145 140 131 122 118 116 112 111 113 115 117 118 118 118 115 113 114 112 110 107 107 105 104 103 102 103 104 104 103 103 100 99 100 99 97 96 96 95 96 102 112 114 110 106
294 297 303 313 328 357 310 77 99 297 84 252 252 210 255 311 316 286 267 245 109 123 73 81 83 84 101 118 116 77 47 36 80 95 108 115 114 125 136 138 138 137 140 144 146 145 143 140 139 142 143 147 149 147 143 135 128 125 123 118 119 118 119 120 120 121 121 116 116 117 116 114 113 113 111 108 106 105 104 103 104 103 102 101 100 101 100 98 98 98 98 99 107 116 114 108 103
303 310 319 332 342 46 2 36 113 184 146 221 255 247 261 315 282 272 269 117 120 142 110 98 91 85 100 92 43 62 78 59 86 96 108 115 110 124 135 137 138 139 141 144 144 144 142 140 140 143 146 149 151 151 148 143 137 133 131 125 125 123 122 121 120 123 119 115 117 118 116 115 115 115 114 112 110 109 107 105 104 102 101 100 100 101 101 101 102 102 100 102 111 117 116 109 104
311 321 333 11 24 31 55 58 164 155 176 216 243 257 248 226 251 269 271 156 147 143 113 112 79 16 65 84 59 73 101 92 93 104 112 120 128 136 137 137 139 139 140 142 142 142 141 141 142 144 149 152 154 155 155 152 147 141 138 132 131 129 124 122 122 123 121 118 120 119 116 116 117 116 115 115 114 112 111 108 105 103 101 100 98 97 99 100 102 102 100 105 113 116 115 114 111
315 324 332 66 79 20 107 141 178 154 205 201 202 260 239 201 238 266 266 203 159 130 109 111 77 18 51 75 48 86 108 100 93 100 104 124 135 137 137 139 139 136 138 140 141 140 141 142 143 147 151 155 158 160 161 159 153 145 143 139 137 134 127 125 123 124 124 123 122 120 119 120 120 118 117 117 116 114 112 109 106 103 101 99 96 94 96 98 100 100 99 105 112 113 112 114 116
319 346 18 103 130 224 130 229 231 221 229 181 208 261 251 214 235 248 263 34 79 109 104 92 99 97 67 53 23 59 115 111 103 111 117 129 136 137 139 140 138 135 137 140 141 140 141 144 144 148 153 158 162 164 165 162 156 150 148 144 142 138 132 129 126 125 127 127 126 122 123 123 122 121 120 119 117 116 113 111 109 107 104 100 98 97 97 99 101 99 97 102 110 113 117 119 120
332 3 52 83 319 331 123 218 227 246 245 190 223 251 316 295 264 254 263 63 64 67 87 102 115 104 75 79 40 48 96 115 119 128 130 133 137 138 140 140 137 134 138 142 141 142 143 145 145 151 156 160 164 166 167 163 158 154 152 149 146 142 135 133 131 131 133 133 130 126 127 125 124 124 122 120 117 118 115 112 111 110 109 106 105 106 105 102 100 98 97 104 111 116 125 131 130
358 3 92 98 4 353 137 244 236 225 243 214 239 254 276 280 278 280 255 161 116 115 111 130 118 92 51 68 77 62 89 111 121 129 131 132 138 139 140 138 135 136 141 143 143 145 146 147 149 154 158 163 167 168 169 164 162 158 157 154 150 146 140 137 135 136 138 139 134 129 130 128 127 126 123 121 117 117 114 111 110 113 115 112 111 112 111 104 100 102 107 112 115 123 133 140 140
51 124 13 89 129 296 247 269 251 232 250 252 263 266 260 260 273 272 250 182 130 127 126 164 114 98 91 78 85 81 94 112 120 127 132 136 142 140 140 137 135 140 144 146 146 147 148 151 153 157 161 165 168 168 170 168 168 164 160 158 156 153 146 143 140 141 143 143 138 133 132 130 130 128 126 123 119 117 115 114 110 114 121 121 118 114 111 108 108 109 111 112 119 133 143 148 144
47 156 112 113 129 272 276 263 253 260 265 260 258 258 260 258 262 250 241 149 129 115 103 105 89 105 111 89 84 99 111 118 121 128 137 140 141 138 138 138 139 144 147 149 150 150 151 155 158 161 165 166 168 170 174 173 172 168 164 161 161 158 152 150 149 149 149 146 141 138 138 136 134 131 129 128 125 121 116 116 114 114 121 125 123 116 112 110 110 103 101 101 121 141 151 154 145
23 306 140 140 112 220 252 255 263 283 278 276 260 248 249 251 253 247 233 123 124 127 125 91 86 106 98 88 89 116 121 119 122 130 138 138 135 137 139 141 145 147 149 151 151 153 154 159 162 163 165 166 169 171 173 172 170 168 166 164 162 158 153 155 155 154 153 150 146 142 142 141 138 137 135 135 131 126 121 120 119 117 120 124 122 116 111 103 97 89 88 95 124 147 157 159 148
67 299 98 127 179 206 223 245 271 283 282 280 262 249 234 239 241 238 220 132 131 138 151 118 119 116 93 99 104 117 114 107 122 131 133 133 133 141 144 146 148 150 152 152 153 156 158 161 161 162 164 165 166 167 168 167 166 167 163 161 160 156 155 158 158 158 157 155 152 146 144 143 144 144 143 140 132 127 124 121 121 121 121 125 122 116 109 96 89 81 83 97 131 151 159 160 148
141 231 101 138 201 191 229 246 274 295 292 271 259 254 218 217 214 211 188 114 135 142 145 136 139 118 99 117 109 114 102 103 124 128 129 131 137 144 147 150 152 154 153 152 154 157 160 161 160 161 163 162 161 162 164 164 164 164 159 157 156 157 158 162 164 162 161 160 158 153 149 150 152 151 150 147 137 130 127 125 128 127 123 128 129 120 109 93 82 72 80 104 137 153 159 156 142
176 207 123 213 247 188 242 244 279 295 284 269 273 268 204 197 201 178 108 79 107 128 106 127 126 105 114 131 119 123 113 121 125 126 130 132 140 144 147 152 150 149 149 153 156 158 160 159 160 161 163 161 160 162 164 166 164 160 157 155 156 159 161 166 171 167 163 162 161 159 156 158 160 157 155 152 141 132 130 142 149 143 136 133 136 128 113 97 81 71 83 114 143 155 157 151 138
181 210 123 208 291 286 243 215 264 256 272 273 275 261 179 41 118 115 106 98 87 102 106 128 119 102 143 151 134 133 128 128 122 126 131 133 141 143 146 146 142 144 149 157 159 161 161 158 160 162 165 163 162 165 166 165 162 159 154 155 158 160 164 168 174 171 167 164 162 163 164 164 167 169 168 167 161 149 140 174 180 166 155 145 144 135 120 103 86 80 94 124 148 157 156 148 139
183 184 104 229 247 258 238 215 250 242 271 273 269 252 74 31 59 91 113 112 97 62 83 163 177 111 150 141 123 127 128 126 122 128 131 133 139 138 138 134 136 145 154 163 162 162 161 160 163 163 165 163 166 167 165 163 159 157 154 157 158 161 165 168 172 173 173 168 164 164 166 169 174 186 194 203 207 222 242 226 202 182 171 161 152 140 126 109 91 90 107 132 151 159 156 149 142
198 176 192 235 232 234 232 235 235 241 282 282 294 317 100 64 59 67 65 93 96 68 59 43 53 100 121 114 118 125 127 125 125 129 131 134 137 131 128 130 139 149 158 164 162 164 164 163 164 164 166 165 169 167 164 160 154 155 154 155 152 154 160 164 165 161 164 162 165 169 170 174 182 206 219 224 226 232 237 237 217 195 184 176 161 145 134 119 100 102 117 138 154 158 154 149 141
172 180 204 221 230 225 210 228 247 279 300 291 303 309 131 112 95 91 66 77 89 79 71 76 76 89 100 107 118 124 126 126 128 131 133 141 140 131 128 136 146 150 156 162 166 170 168 167 166 168 171 169 172 168 165 158 154 158 156 156 151 150 154 159 159 146 145 147 158 169 168 173 181 204 216 223 230 228 222 217 215 206 196 187 174 155 143 133 110 110 124 140 153 156 153 149 139
165 181 204 221 222 236 231 256 283 298 292 291 308 307 178 132 128 122 96 92 96 90 84 91 93 99 102 110 119 122 125 126 131 136 141 153 149 138 134 139 148 151 157 167 171 174 171 169 169 172 173 173 174 170 168 159 157 164 162 162 159 157 158 161 160 145 140 140 149 157 156 167 164 158 148 158 227 225 221 213 207 209 207 199 188 169 152 146 119 116 132 140 150 154 152 148 141
196 189 218 245 236 275 274 275 286 282 280 296 308 310 315 140 135 121 118 110 106 112 120 115 116 122 119 122 123 121 124 126 134 139 145 159 153 141 139 141 149 156 163 172 173 172 172 168 167 171 172 171 174 172 169 163 161 166 167 168 166 165 163 164 163 154 153 152 155 164 170 182 179 165 158 174 211 221 229 226 216 211 212 207 198 186 168 161 137 125 137 141 146 149 148 144 142
227 182 193 237 246 290 276 274 281 282 284 285 302 339 8 39 112 124 124 110 109 130 140 137 135 136 131 128 125 122 124 127 134 138 146 162 155 138 139 145 152 160 164 170 171 170 170 166 166 169 170 168 171 171 166 164 163 167 174 174 173 171 169 169 170 169 170 173 173 182 194 208 209 201 211 217 216 227 242 248 234 219 216 210 201 194 182 177 164 141 143 148 147 148 148 143 143
268 231 198 221 234 272 273 275 280 288 305 320 351 7 338 341 96 133 134 128 146 145 140 137 135 137 134 129 125 124 126 129 134 140 150 165 160 137 138 146 151 160 163 167 171 171 172 172 174 173 172 170 169 170 166 167 166 170 178 178 179 179 179 179 179 180 180 182 183 192 205 216 226 229 240 238 231 228 233 257 246 227 221 214 204 199 193 186 183 167 155 156 156 159 160 158 160
242 272 238 231 226 239 264 283 274 276 358 347 353 342 327 33 60 119 127 125 135 133 135 133 130 133 129 124 125 128 134 137 142 150 156 162 160 141 141 147 150 161 166 170 174 174 175 176 181 181 178 175 172 172 168 171 172 172 176 180 184 183 186 189 188 188 189 195 199 206 213 219 233 241 244 246 243 233 230 240 239 228 222 220 214 206 203 196 193 191 179 173 173 177 181 194 239
213 254 253 241 227 230 250 270 271 276 358 320 321 356 29 69 67 82 100 108 120 126 132 130 128 129 123 121 127 135 140 144 148 149 153 154 146 136 143 149 152 165 173 176 179 179 178 177 182 185 183 180 176 176 175 174 176 175 177 183 188 190 195 193 193 195 197 207 215 219 220 222 229 236 236 240 246 245 241 237 230 229 220 220 221 216 213 206 201 202 202 203 200 205 216 237 262
217 231 245 242 225 234 236 235 259 278 315 330 3 16 46 94 99 100 108 115 123 127 128 127 126 123 118 122 129 134 137 138 135 125 124 129 129 133 149 158 160 173 183 183 183 184 183 180 181 185 185 182 178 181 183 182 182 183 185 190 192 197 205 202 199 204 210 218 225 227 224 222 221 224 226 231 240 246 249 248 241 235 220 216 219 221 222 219 213 209 213 224 227 233 243 257 271
221 213 233 236 230 239 213 208 238 252 289 16 6 0 80 101 93 96 116 123 124 124 124 124 121 116 115 122 127 130 132 129 120 109 111 129 145 157 165 169 169 177 186 187 186 187 186 183 179 182 184 185 185 187 192 194 195 195 195 202 205 204 209 213 212 214 221 227 234 237 232 228 223 220 223 227 233 239 246 253 251 244 226 216 222 224 225 228 227 223 229 236 240 249 255 265 275
248 233 245 245 246 248 167 192 241 246 297 72 12 302 102 117 94 97 129 128 126 121 118 120 115 113 116 119 123 127 127 123 119 118 124 143 160 169 173 172 169 174 184 189 191 189 187 182 177 179 185 191 196 197 200 203 206 208 208 213 220 218 218 221 221 224 229 234 242 246 241 238 234 228 225 225 226 230 239 245 249 248 238 227 230 231 228 232 235 237 245 247 247 253 259 266 271
270 269 279 274 266 263 189 188 236 214 302 137 144 282 13 77 122 136 150 133 127 122 117 118 112 112 115 116 120 121 117 120 125 130 141 156 165 167 165 162 159 162 177 189 194 192 189 186 183 184 189 196 204 209 209 211 215 217 219 220 225 230 233 234 232 234 237 239 245 250 248 245 243 238 232 228 222 220 229 239 245 247 245 239 236 235 234 235 238 243 249 254 256 258 258 259 263
259 231 249 283 293 273 235 197 215 176 195 170 120 0 330 31 130 138 137 127 121 118 119 119 115 114 115 114 116 111 112 123 129 135 147 156 159 158 152 156 163 167 178 189 193 192 191 190 189 193 196 200 207 214 217 217 219 222 224 223 226 232 238 241 240 242 245 245 249 253 253 250 248 244 240 239 233 224 227 238 244 247 247 243 239 238 238 239 241 245 249 257 263 259 255 253 257
276 220 158 275 337 301 252 188 181 174 187 173 112 124 292 108 135 130 124 127 117 113 119 121 119 117 116 114 110 105 112 120 120 125 137 138 141 150 152 161 169 172 179 186 191 191 190 187 185 187 191 198 207 215 219 219 221 225 226 224 227 233 236 237 237 241 248 254 259 259 259 258 256 253 246 244 245 241 239 242 245 247 247 244 242 241 240 243 246 250 253 258 264 262 256 254 255
295 301 46 218 135 270 278 200 156 180 208 146 110 175 258 135 141 134 129 133 121 117 121 121 121 117 116 111 104 101 100 94 94 108 121 124 131 145 149 152 159 167 173 182 193 189 185 179 170 172 177 191 205 215 220 220 221 221 223 224 226 230 230 230 232 238 248 261 268 268 267 266 264 259 253 249 248 250 251 249 249 249 249 247 247 247 245 246 248 253 256 255 259 263 260 256 254
348 318 318 344 171 253 299 297 160 182 219 120 115 185 237 149 169 151 134 137 127 124 129 125 122 116 113 103 100 101 85 77 80 94 112 121 128 138 140 139 139 148 156 160 169 169 169 171 167 171 184 197 199 204 209 206 206 209 218 226 225 225 227 232 238 247 257 266 275 279 277 270 264 259 256 253 249 250 253 254 257 259 258 254 253 255 253 251 251 254 256 252 253 258 259 256 255
0 141 238 258 188 237 307 301 201 187 162 109 143 170 345 155 168 153 137 139 129 125 130 124 120 115 109 100 97 95 81 76 76 87 105 111 115 127 131 129 129 139 148 149 154 162 171 179 177 164 163 170 167 168 175 172 177 200 224 229 227 227 230 241 252 263 271 274 277 286 287 275 265 260 259 257 251 249 250 255 262 267 266 262 257 257 257 256 256 256 255 250 248 252 257 257 257
316 53 200 230 204 191 241 293 274 184 151 161 172 119 42 147 155 147 145 141 128 127 129 123 120 109 100 95 90 83 81 82 77 84 99 102 105 115 120 119 125 136 149 157 163 169 174 180 180 157 137 136 144 148 152 156 162 200 240 234 221 233 241 257 268 272 278 278 276 284 294 290 277 267 263 264 262 257 255 258 265 269 270 267 259 254 254 256 258 258 255 250 247 250 254 256 258
215 200 183 231 216 197 206 242 260 171 159 154 135 79 79 138 149 142 145 136 125 126 124 119 112 100 94 90 88 89 88 83 82 97 109 108 103 104 109 107 107 116 135 158 164 164 171 176 172 149 126 121 137 144 151 166 175 201 242 232 215 241 254 265 276 275 274 277 278 281 289 291 288 278 269 270 273 273 269 266 266 268 268 265 260 255 254 254 256 258 257 253 251 250 251 253 256
187 192 182 195 198 230 222 232 241 164 134 71 91 80 84 123 134 118 118 120 116 116 113 110 103 96 95 94 96 93 85 80 87 93 101 106 102 95 93 92 90 92 101 126 143 138 138 141 134 120 110 111 129 138 151 181 189 196 225 222 219 243 256 262 274 274 273 276 278 281 283 284 284 280 274 272 273 276 276 274 272 270 268 266 265 266 265 265 264 264 264 262 257 253 251 251 253
193 196 213 213 198 236 222 230 250 163 111 51 89 84 64 71 93 108 128 126 108 107 107 104 100 100 100 101 98 89 84 86 84 80 81 89 92 87 83 83 83 81 81 89 100 101 102 105 101 100 101 107 117 121 131 146 167 183 201 207 215 235 249 261 273 275 280 284 281 281 284 284 283 280 276 273 272 274 275 274 273 271 268 268 268 270 272 273 274 272 271 269 264 258 253 251 251
217 204 233 256 221 240 232 224 244 134 98 74 93 82 61 61 74 99 120 113 100 105 109 106 107 109 107 102 97 93 93 87 80 76 75 79 82 81 78 77 76 73 71 75 78 80 84 87 87 90 92 95 95 94 101 101 98 124 150 174 206 224 234 255 275 279 283 286 284 284 286 286 285 281 277 275 276 277 279 279 278 276 274 274 274 272 272 273 275 276 274 271 267 261 257 254 249
223 207 228 265 236 247 289 255 219 118 99 130 101 88 72 69 75 79 92 103 103 105 106 109 114 114 109 105 102 101 94 86 82 79 76 77 77 78 76 72 71 70 67 69 70 72 76 76 78 82 82 83 84 84 89 85 80 105 135 143 182 221 231 258 287 289 287 290 293 296 297 296 294 290 281 273 272 276 281 282 282 281 280 282 283 279 277 277 277 278 275 271 268 260 256 253 246
213 200 215 243 198 135 300 273 193 107 108 134 107 93 88 77 76 73 77 98 103 102 100 96 100 105 105 104 101 99 93 91 92 87 82 80 76 74 74 71 69 69 66 64 65 66 68 68 72 77 76 77 79 82 88 89 94 107 121 136 197 228 259 305 323 332 320 308 305 306 309 308 302 294 282 273 273 279 282 280 280 281 281 284 285 282 281 281 280 281 278 272 266 259 258 257 251
219 204 215 228 192 158 213 256 85 77 96 126 107 83 50 83 95 94 91 98 98 99 96 87 85 90 93 92 91 91 92 93 92 90 87 84 80 75 75 74 70 68 65 63 63 65 67 66 69 74 74 74 75 79 86 92 97 98 98 91 79 73 51 15 1 3 357 340 328 323 322 316 304 295 287 283 286 286 283 283 285 287 288 288 288 287 287 286 285 282 278 272 262 254 255 259 257
239 223 221 222 195 173 211 169 92 90 128 157 119 98 316 339 119 130 123 111 105 103 100 100 102 95 92 92 92 92 89 89 88 87 87 84 84 79 74 73 71 69 67 67 65 64 65 64 63 67 69 67 67 71 79 89 90 84 82 74 65 62 52 38 30 24 20 14 6 356 348 340 333 321 306 303 306 298 288 287 289 291 295 294 293 293 288 284 286 281 273 270 265 257 250 250 254
238 226 215 213 187 191 222 177 132 137 182 206 171 122 162 265 198 164 143 124 118 114 108 112 114 105 104 100 97 101 95 92 89 84 82 82 81 78 73 71 72 70 68 69 66 60 58 56 55 57 61 62 62 65 71 83 85 78 75 71 66 61 51 42 42 41 37 32 31 29 25 21 13 360 339 327 329 325 312 304 299 295 297 297 298 297 286 278 285 286 279 276 274 263 248 240 246
229 211 190 188 176 199 225 193 176 184 164 187 235 104 136 203 203 182 152 128 123 122 117 119 123 118 112 107 103 103 100 97 96 89 83 81 80 80 77 73 72 71 69 67 64 60 54 49 49 51 57 60 60 62 65 70 74 72 69 67 65 62 53 46 43 42 39 35 35 35 34 36 35 27 12 355 349 347 342 335 326 311 303 302 302 299 291 285 288 291 288 284 278 268 256 244 242
237 211 178 174 171 196 221 203 185 155 144 175 190 116 128 186 182 174 161 141 137 139 134 131 130 125 115 113 110 102 100 100 98 98 91 84 83 83 84 80 74 72 69 66 65 66 60 53 53 58 62 62 58 60 61 61 61 60 57 55 55 55 51 46 41 36 33 31 31 30 29 29 32 34 28 15 4 358 353 348 343 330 317 314 310 303 297 294 293 293 291 287 281 275 271 259 247
237 215 200 157 144 200 215 197 162 131 149 191 195 165 130 150 183 173 168 170 170 155 142 140 133 127 121 117 116 108 105 104 98 98 93 89 89 87 86 82 75 72 68 65 68 70 66 61 62 66 67 64 62 63 66 65 61 55 52 48 45 43 39 35 32 29 26 26 26 25 22 20 20 24 25 21 15 9 2 353 348 344 335 329 322 314 307 302 299 298 297 294 290 287 284 273 261
226 219 221 156 93 244 221 158 106 129 184 206 197 189 146 147 198 187 178 183 175 161 147 149 139 129 127 122 121 116 109 107 99 95 91 89 88 85 84 80 75 74 70 67 69 68 68 68 69 72 71 66 64 67 71 70 67 63 59 54 49 44 39 33 30 27 24 25 25 21 16 12 12 14 13 14 14 12 8 2 357 353 349 344 337 329 320 311 307 305 302 300 298 297 295 287 276
221 219 193 163 333 302 272 5 75 141 223 224 189 181 145 160 203 202 199 161 160 162 152 150 145 134 132 127 124 118 109 107 97 94 91 84 80 78 79 79 77 75 73 70 67 65 69 71 72 80 80 70 66 68 72 70 68 68 65 60 59 55 49 44 38 32 29 27 24 19 15 12 10 5 2 6 8 7 6 5 3 1 357 353 348 342 332 323 315 308 304 302 300 298 295 291 285
214 214 155 143 207 229 207 234 165 179 241 231 164 143 116 196 222 209 179 143 149 157 146 144 140 132 131 127 124 118 110 108 101 98 93 83 78 74 77 82 81 79 83 78 62 60 67 69 73 85 84 74 70 72 73 72 72 73 67 61 60 59 55 51 46 41 38 33 28 24 21 18 15 8 3 5 5 3 3 2 2 2 359 355 352 347 342 335 325 314 309 304 301 299 295 291 288
200 202 157 148 153 170 211 216 150 192 238 280 151 146 150 305 341 354 142 137 140 140 134 134 128 124 126 124 121 114 107 106 103 100 96 88 82 79 83 87 85 86 93 75 53 56 68 68 74 87 86 77 75 74 74 74 75 72 67 62 62 60 55 52 49 45 43 39 34 31 26 23 21 15 10 7 5 5 4 4 3 2 1 359 355 350 346 342 336 327 319 312 306 302 298 294 290
196 181 135 156 164 154 197 189 163 190 176 9 22 146 210 259 44 64 116 120 120 124 121 116 114 114 117 114 108 105 102 103 103 101 101 98 92 90 90 88 88 92 86 63 58 67 73 69 76 89 88 81 77 75 73 73 73 70 68 67 66 62 57 54 52 49 48 43 36 33 30 27 24 19 14 11 10 9 6 5 5 3 4 5 2 357 352 346 342 335 329 324 318 312 304 299 299
209 151 125 181 182 143 147 173 171 169 135 32 16 113 9 66 88 92 111 112 112 116 112 109 109 107 107 103 98 99 98 99 102 104 107 110 108 106 98 89 89 89 79 71 69 74 76 72 79 88 85 81 78 75 73 71 71 70 69 68 66 64 59 56 54 52 52 49 42 37 32 28 25 21 18 14 13 12 8 5 3 1 5 9 7 2 358 352 345 339 334 330 325 321 315 307 304
186 160 173 189 154 126 118 168 169 109 110 117 196 129 102 96 98 113 120 118 119 120 114 112 109 105 105 104 104 105 104 104 106 112 120 125 126 122 109 94 86 84 82 79 76 76 75 74 82 88 84 80 78 75 73 72 72 70 68 67 65 63 60 56 54 52 52 51 46 41 34 29 27 24 21 18 15 12 7 5 3 2 6 12 9 2 359 358 354 348 341 336 331 325 317 310 306
153 199 204 150 118 111 104 137 252 65 109 210 226 152 159 161 153 142 134 131 137 133 122 118 113 111 112 112 116 114 113 115 113 118 126 132 133 124 108 92 87 88 86 83 80 78 75 76 83 86 81 78 76 74 74 73 72 69 67 66 64 62 61 59 55 52 51 50 46 41 35 31 29 27 23 21 18 13 8 6 7 7 12 17 10 360 358 358 356 355 349 344 342 335 323 312 308
139 183 189 143 157 216 107 144 182 117 116 168 179 170 181 176 166 158 151 151 151 140 130 129 124 122 120 118 122 118 116 121 118 120 121 122 118 102 93 92 89 89 86 83 83 79 76 79 83 82 80 80 78 76 75 72 71 70 68 68 65 63 62 59 56 53 52 51 45 41 37 33 30 28 25 24 22 18 14 12 12 13 19 21 9 358 358 357 355 354 351 348 347 346 335 321 312
90 136 183 161 159 173 159 157 155 136 144 162 158 178 214 198 175 167 163 161 155 146 142 139 131 127 125 123 124 121 126 133 125 117 98 95 98 94 95 96 89 87 86 85 84 77 74 78 81 81 82 82 79 77 76 73 71 71 70 69 66 64 63 60 57 55 54 51 46 42 38 35 32 28 25 25 24 21 18 16 16 17 22 21 6 358 357 354 352 351 349 347 345 345 342 333 321
122 137 189 208 124 128 147 167 128 125 145 152 146 192 236 216 184 172 165 162 155 147 142 135 131 129 126 124 128 134 140 136 120 104 97 100 100 99 101 99 92 88 86 84 82 76 72 76 81 82 81 79 78 76 75 74 73 71 70 70 67 65 64 62 59 57 55 52 47 44 40 37 35 31 28 26 24 22 19 18 18 18 23 19 6 2 1 356 353 349 346 345 343 341 340 336 330
151 159 190 179 145 123 132 212 259 109 130 156 153 187 227 223 198 173 163 158 150 141 133 129 131 129 125 128 136 141 139 132 127 115 113 111 104 102 104 100 93 86 80 79 81 77 74 77 82 82 79 78 77 76 75 75 73 70 69 70 69 66 64 61 59 56 55 53 50 46 42 39 37 34 32 30 27 24 21 21 20 18 20 16 7 6 6 1 356 350 346 344 341 339 337 334 332
Height
783 784 783 783 782 781 782 783 798 801 803 816 810 805 793 779 778 774 774 767 766 764 755 752 750 751 757 765 772 774 778 778 781 790 797 796 792 793 793 793 796 796 799 800 801 803 803 804 805 807 809 810 811 812 813 813 814 814 814 814 813 813 813 814 814 815 816 817 818 818 819 819 820 820 821 821 821 822 822 823 823 823 823 823 823 824 824 824 824 824 824 825 825 825 825 825 826
783 784 782 783 781 783 787 786 805 811 811 821 810 801 788 776 778 775 772 766 766 763 755 753 753 755 757 761 763 768 781 781 777 782 790 792 792 796 795 794 796 796 799 800 801 803 804 805 806 808 809 810 811 812 813 814 814 814 814 814 814 814 814 815 815 816 817 817 818 819 819 819 820 821 821 822 822 822 823 823 824 824 824 824 824 824 824 825 825 825 825 825 826 826 826 826 827
783 783 782 783 782 784 788 790 808 816 818 822 809 794 783 781 779 770 767 763 762 758 755 755 757 761 762 767 766 772 787 785 779 782 788 792 793 797 797 796 796 797 798 800 801 802 804 805 806 808 809 810 811 812 813 814 814 814 814 814 814 815 815 816 816 817 818 818 819 819 820 821 821 822 822 823 823 823 823 824 824 824 825 825 825 825 825 825 826 826 826 826 827 827 827 827 828
783 782 782 782 785 789 793 800 807 811 816 817 808 790 780 782 774 765 761 760 757 753 756 757 763 762 761 775 774 776 786 785 783 782 788 793 793 796 797 796 797 797 799 800 801 803 804 806 807 808 809 810 811 812 813 813 814 814 814 815 815 816 817 817 818 818 819 819 820 821 821 822 822 823 823 823 824 823 824 824 825 825 825 826 826 826 826 826 827 827 827 827 827 828 828 828 828
783 782 782 783 790 793 795 804 803 806 810 806 801 786 778 777 769 764 757 757 755 753 756 757 768 766 763 774 775 780 785 783 785 783 787 793 793 796 797 797 797 798 800 801 802 803 805 806 807 808 809 810 811 811 812 813 813 814 815 815 816 817 818 818 819 819 820 821 821 822 822 822 823 823 824 824 825 825 825 825 825 826 826 826 826 827 827 827 828 828 828 828 828 828 828 828 828
782 782 782 783 788 789 798 808 805 805 799 793 794 781 775 771 767 763 755 757 755 753 754 757 767 770 774 777 774 778 779 780 786 785 786 793 795 795 796 797 797 799 801 802 803 804 805 806 806 807 809 810 810 811 812 813 813 814 815 816 817 818 818 819 819 820 821 821 822 822 823 823 823 824 825 825 826 826 826 826 826 826 827 827 827 828 828 828 828 828 829 829 829 829 829 829 829
782 784 785 788 789 790 804 811 806 806 792 786 787 778 775 768 763 763 758 762 762 758 757 760 762 771 785 780 779 779 775 778 782 786 787 791 795 795 797 797 798 800 802 803 804 804 805 805 806 807 808 809 810 811 812 813 814 814 815 816 817 818 819 819 820 821 821 822 823 823 823 824 824 825 825 826 826 827 827 827 827 827 827 827 827 828 828 828 828 829 829 830 830 830 830 830 830
782 786 787 793 798 798 806 807 802 802 789 780 779 775 775 766 762 764 762 762 766 763 762 765 760 776 791 780 786 786 777 780 781 788 790 791 795 795 798 797 799 801 802 802 803 804 804 805 806 807 808 809 810 811 812 813 814 814 816 816 817 818 819 819 820 821 821 822 823 823 824 825 825 826 826 826 827 827 828 828 828 828 827 827 827 827 828 828 829 829 829 830 831 831 831 831 831
782 786 788 795 802 803 806 805 800 794 785 779 776 773 771 765 763 765 762 759 763 764 766 766 758 777 793 784 791 788 782 786 785 791 791 793 794 795 798 797 799 799 801 801 802 803 803 805 805 806 807 808 809 811 812 812 814 814 816 817 818 818 818 819 820 821 821 822 823 824 825 826 826 826 827 827 828 828 828 828 828 828 828 828 828 828 828 828 829 829 830 830 831 831 832 832 832
784 787 790 797 803 808 809 805 798 790 784 779 775 770 766 762 762 763 759 758 761 766 769 763 761 777 789 789 794 789 787 789 788 793 793 794 795 796 798 797 798 797 799 800 801 802 802 804 804 805 806 808 810 811 812 812 813 814 816 817 818 818 819 819 820 821 822 823 823 824 825 826 827 827 828 828 828 829 828 829 829 829 828 828 828 828 828 829 829 829 830 830 831 831 832 832 833
789 788 789 800 806 811 809 804 798 789 782 777 772 765 762 758 759 761 756 759 760 766 768 762 772 781 784 793 795 790 790 791 791 793 794 795 796 796 797 797 797 797 799 799 801 802 802 804 805 806 807 809 810 810 811 812 813 814 816 817 818 819 819 820 821 822 822 823 824 824 825 826 827 827 828 829 829 829 829 829 829 830 829 829 829 829 829 829 829 829 830 830 831 831 832 832 833
793 792 791 803 807 806 803 802 797 788 782 777 772 759 755 754 758 759 753 760 762 765 762 759 773 776 787 799 794 792 792 795 796 795 796 796 795 795 795 796 797 797 799 800 801 802 803 805 806 807 808 809 809 810 811 812 814 815 817 818 819 820 821 821 822 823 823 824 825 825 826 827 828 828 828 829 830 830 830 830 830 830 830 830 830 829 829 829 830 829 830 830 830 831 832 832 833
793 793 795 802 801 798 798 799 794 789 785 774 766 754 749 752 755 752 748 758 762 767 762 755 762 766 787 799 793 796 796 797 797 798 798 795 795 794 795 795 796 798 799 801 802 803 804 805 807 808 809 810 810 811 812 814 815 817 818 820 821 822 822 822 823 824 824 825 825 826 827 828 828 829 829 830 830 831 831 831 831 831 831 831 831 830 830 830 830 830 830 830 830 831 832 833 834
789 789 793 800 797 794 795 795 792 792 785 767 758 749 745 747 745 744 747 762 766 765 762 754 754 765 787 795 797 799 798 798 795 798 798 795 795 793 795 796 798 801 802 804 803 804 805 807 809 810 811 812 812 813 814 816 817 818 820 821 822 823 823 824 824 825 826 826 827 827 828 829 830 830 831 831 831 832 832 832 832 832 832 831 831 831 831 830 830 830 830 830 831 832 832 833 834
785 785 789 797 796 795 792 792 790 791 782 762 754 746 745 744 740 746 748 760 767 758 758 757 752 766 784 787 795 797 796 798 794 797 797 796 796 795 797 798 801 803 804 805 804 806 807 809 810 811 812 812 814 815 816 818 819 821 822 823 824 825 825 826 827 827 828 828 829 829 830 831 832 832 833 833 832 833 833 833 833 833 832 832 832 832 832 831 831 830 830 831 831 832 833 834 835
781 783 790 797 797 798 793 788 786 788 778 759 751 743 748 750 743 751 746 745 761 759 759 762 754 762 776 779 786 790 794 796 794 797 797 796 796 797 800 801 805 804 805 806 806 808 808 810 811 811 812 813 815 816 818 820 822 823 824 825 826 827 828 828 829 830 830 831 831 831 832 832 833 834 834 834 833 833 833 834 834 833 833 833 833 833 833 832 832 831 830 831 831 832 834 834 835
779 785 794 799 798 798 792 784 782 781 772 758 750 744 752 759 750 750 744 741 758 765 764 765 758 761 772 778 781 786 792 793 793 796 796 796 796 798 802 803 805 804 805 807 808 810 811 812 813 814 814 815 817 818 820 821 823 825 826 827 828 829 829 830 831 832 833 833 833 833 833 834 834 834 834 834 833 833 834 834 834 834 834 833 833 833 833 833 832 832 831 831 832 833 834 835 836
782 789 796 800 797 792 784 779 775 772 770 760 752 747 751 761 758 751 752 756 761 768 770 768 767 770 775 780 784 787 790 792 793 795 795 796 797 800 803 804 805 805 807 809 810 811 812 814 814 816 816 816 818 819 821 822 825 826 827 828 829 830 830 832 832 833 834 834 834 834 834 834 834 834 834 834 833 833 834 834 834 834 834 834 834 834 834 834 833 833 832 832 833 834 835 835 836
782 788 793 795 790 783 775 772 770 768 769 762 754 749 750 756 756 752 761 771 766 773 781 776 777 781 783 785 788 790 790 792 793 793 795 795 797 800 802 805 806 807 808 809 810 812 814 815 816 816 817 818 819 821 823 824 826 827 828 829 830 831 831 832 833 834 835 835 835 834 834 834 834 834 833 833 833 833 834 833 834 834 834 834 834 835 835 834 834 834 833 833 834 835 836 836 836
779 783 792 789 780 777 770 768 767 764 765 764 757 749 749 751 750 753 765 775 771 776 782 780 784 786 787 789 789 790 791 793 793 794 795 796 798 801 803 806 807 808 808 809 811 813 815 816 817 818 818 820 821 823 824 825 827 828 829 830 830 831 832 833 834 835 835 835 835 834 834 833 833 833 832 833 833 833 833 833 833 833 834 834 835 835 835 835 835 834 834 834 835 836 837 837 837
777 779 788 782 775 775 768 765 763 759 760 762 757 751 751 748 749 756 763 777 781 778 774 773 779 782 784 788 789 790 792 794 795 796 796 797 800 803 805 806 808 809 809 811 813 815 816 818 818 819 820 821 823 824 825 827 828 829 830 830 831 832 833 834 834 835 835 835 834 834 833 832 832 832 832 833 833 833 833 833 833 833 833 833 834 835 835 835 835 835 835 835 836 837 837 838 838
777 777 779 774 773 774 766 762 760 757 759 758 756 755 753 747 752 758 759 773 780 774 771 770 772 776 780 785 789 791 792 795 797 798 798 798 801 804 807 808 809 811 812 813 814 815 817 819 820 820 822 823 824 826 827 828 829 830 830 830 831 832 833 834 834 835 834 834 833 832 831 831 831 832 833 833 833 833 833 833 832 832 833 833 834 834 835 835 836 836 836 836 837 837 838 838 838
780 777 772 769 769 771 765 761 758 756 758 758 757 755 752 752 759 759 758 766 768 766 768 770 771 774 778 783 788 792 794 796 797 798 799 799 802 805 808 809 811 812 813 814 814 815 817 819 820 821 822 824 825 827 828 829 830 830 830 831 832 833 833 834 834 834 833 833 831 830 830 830 832 832 832 832 832 832 832 832 832 832 833 833 834 834 835 835 836 836 836 837 837 838 838 838 838
779 779 771 767 766 766 764 761 758 754 756 755 753 753 755 760 763 761 763 766 764 765 768 769 773 775 779 784 789 792 794 796 797 799 800 801 804 806 808 810 811 812 812 813 813 815 817 819 820 821 823 824 826 827 828 829 829 830 831 831 832 833 833 833 833 834 833 832 830 828 828 830 831 831 831 831 831 831 831 832 832 832 832 833 834 834 835 835 835 835 836 837 837 838 838 838 838
776 777 770 765 764 762 761 761 758 752 752 751 751 755 760 761 761 765 769 769 766 768 770 771 774 777 781 787 790 793 795 797 799 801 803 804 805 806 808 808 808 809 810 810 812 813 815 817 819 821 823 824 826 827 828 829 829 830 831 831 832 832 832 833 834 834 833 831 828 827 828 829 829 828 828 829 829 830 830 831 831 832 832 833 833 834 834 835 835 835 836 836 837 837 837 838 837
771 769 767 764 762 759 759 761 758 753 751 751 754 758 764 760 761 773 773 769 770 770 774 775 776 781 786 789 792 794 796 798 800 802 804 803 803 802 802 802 803 804 806 807 810 812 815 818 820 822 823 825 826 827 828 828 829 830 831 831 831 832 833 834 834 833 831 829 827 827 828 828 826 825 825 827 828 829 830 830 831 832 832 832 832 833 834 834 835 835 836 836 836 836 836 837 837
764 764 764 762 761 759 759 760 757 756 754 754 757 760 765 761 766 784 780 769 771 774 779 780 781 786 788 791 794 795 797 799 800 801 801 800 799 798 798 800 803 806 808 810 812 814 817 820 822 823 825 826 827 828 828 829 829 830 831 831 831 832 834 834 833 832 830 829 827 827 828 827 825 824 824 826 827 828 829 829 830 830 831 832 832 832 833 833 834 835 835 835 835 835 836 836 836
762 764 765 762 760 760 760 761 759 758 758 756 758 760 763 764 771 783 780 772 772 775 783 785 786 789 791 793 795 797 799 800 801 799 799 799 798 799 802 805 808 810 812 813 814 815 817 819 822 824 825 827 828 828 829 829 829 830 830 830 832 833 833 833 833 832 830 828 827 826 826 825 824 824 824 825 826 827 827 828 829 829 830 831 831 831 832 832 833 834 835 835 835 835 835 835 835
762 762 767 765 761 762 760 760 759 758 760 755 758 769 770 771 776 777 776 777 776 778 784 787 789 791 793 795 796 799 801 801 801 800 800 801 802 803 806 807 809 810 811 812 813 815 816 818 820 822 824 826 827 828 829 829 830 830 830 831 832 833 832 832 832 831 829 828 827 825 825 824 823 823 825 825 826 826 826 827 828 829 829 830 831 831 831 831 832 833 834 835 834 834 834 834 833
763 761 766 768 769 769 759 758 759 758 759 751 761 784 783 776 779 775 775 779 781 785 788 789 791 792 794 796 799 801 802 803 803 803 804 804 805 806 807 808 809 811 812 814 815 816 818 819 821 823 824 826 826 828 828 829 829 829 829 831 832 832 832 832 832 830 829 828 826 825 824 824 823 823 825 826 826 826 826 827 828 829 830 830 831 831 831 831 831 832 833 834 834 833 833 832 832
766 766 767 771 779 774 758 757 760 760 759 750 763 788 785 780 781 776 776 779 781 789 791 792 792 793 795 798 801 804 805 806 807 806 807 807 808 808 809 810 811 813 815 816 817 818 820 821 822 823 824 826 826 827 828 829 829 829 829 831 832 832 832 832 831 831 829 827 825 824 824 823 822 823 824 825 826 826 826 827 828 829 829 830 830 830 831 831 830 831 832 833 833 832 832 831 831
768 776 778 776 780 775 760 756 758 761 760 754 766 785 784 783 784 777 776 778 780 789 794 794 794 795 798 800 803 806 808 809 809 809 809 810 810 811 811 812 813 814 815 817 818 819 821 822 823 823 824 826 826 828 828 829 829 829 830 831 831 831 832 832 831 830 829 828 825 823 823 822 821 822 823 824 825 826 826 827 827 828 829 829 829 829 829 829 829 830 830 831 831 831 831 830 830
773 779 784 779 778 777 768 759 755 756 760 760 766 779 784 782 781 778 777 778 780 789 795 795 796 798 799 802 805 808 810 811 811 812 812 813 813 813 814 814 814 815 816 818 819 820 821 822 823 823 823 825 826 828 828 829 830 830 830 831 830 830 831 831 830 829 828 827 825 823 822 821 821 821 822 823 824 825 826 826 827 827 828 828 828 828 827 827 827 828 828 828 828 829 829 829 829
782 781 783 779 776 777 774 766 759 756 761 766 767 778 786 781 779 780 778 777 781 789 795 797 798 800 802 804 807 810 811 813 813 814 814 815 815 815 816 815 815 816 817 818 819 820 821 822 822 821 822 823 826 827 828 830 831 832 831 830 830 830 830 830 830 829 828 827 825 824 822 821 821 821 822 823 824 825 826 826 826 826 826 825 825 825 825 825 825 825 825 826 826 826 827 827 827
786 784 783 781 777 777 776 769 761 759 764 767 772 784 789 782 780 781 781 779 783 790 794 798 800 802 805 808 810 812 813 814 815 815 816 816 817 817 818 817 817 817 818 819 820 821 821 822 823 822 821 823 825 827 828 830 831 832 832 831 831 830 830 830 829 828 827 826 825 824 823 822 821 822 823 823 824 825 825 825 825 824 824 823 823 823 823 824 824 824 824 824 824 824 824 824 825
779 780 780 780 778 778 775 767 759 759 768 775 782 792 793 788 787 790 794 789 787 793 795 799 803 805 808 811 812 813 814 815 816 816 817 817 818 818 819 819 819 819 820 821 822 823 823 824 825 823 822 823 825 827 828 830 831 832 832 832 832 831 830 830 829 827 826 826 825 825 824 823 822 822 823 824 824 825 824 824 824 823 823 823 824 824 824 824 824 824 824 824 824 823 823 823 823
773 777 778 777 778 778 772 765 759 755 772 791 794 797 800 798 796 797 801 798 794 798 799 801 805 808 810 812 813 815 816 817 817 817 818 818 819 819 820 820 820 821 822 823 823 825 825 825 825 824 823 825 826 827 828 829 830 831 831 832 832 831 830 830 828 827 826 825 825 825 825 824 824 823 823 824 824 824 823 823 823 823 823 823 823 824 824 825 824 824 824 823 823 823 822 822 822
773 778 779 780 780 778 769 763 761 756 778 803 798 799 807 804 802 800 799 800 801 802 803 804 807 809 812 813 815 817 817 817 817 819 820 820 821 821 821 822 822 823 823 824 824 825 825 825 825 824 824 826 826 828 829 829 830 831 831 831 831 831 830 829 828 827 826 825 824 824 824 825 825 825 824 824 823 823 823 822 822 821 821 821 821 822 822 822 822 822 822 821 821 822 821 821 821
776 778 780 784 779 777 771 762 761 762 782 806 801 803 814 808 805 804 801 802 804 805 804 805 807 809 813 815 817 818 819 819 819 821 822 822 823 822 823 824 824 824 824 825 825 825 826 826 826 826 826 827 827 828 829 829 830 830 831 831 831 831 830 829 829 827 826 825 825 824 824 824 824 825 824 823 822 823 823 821 820 819 819 820 820 820 820 820 820 820 820 820 820 820 820 819 820
777 780 783 784 777 779 779 766 765 769 780 799 800 806 815 813 810 808 807 806 805 806 806 806 808 810 814 816 817 819 820 822 822 822 823 823 824 824 824 825 826 826 826 827 827 827 827 828 828 827 828 828 829 829 829 830 830 830 831 831 831 831 830 830 829 828 827 826 825 825 824 824 824 825 823 822 822 823 822 821 819 819 820 820 820 819 819 819 818 818 818 818 819 819 819 818 818
777 777 779 780 776 778 777 770 774 782 788 791 795 813 821 815 816 815 811 809 808 808 808 809 812 813 815 816 818 820 821 823 824 824 824 824 825 826 826 827 828 827 828 829 830 830 830 830 830 830 830 830 830 831 830 830 830 830 830 830 831 831 831 830 829 828 827 826 826 826 825 825 825 825 823 822 822 823 822 820 818 818 818 819 818 818 819 817 816 816 816 817 817 818 818 817 815
779 773 769 770 773 774 772 772 784 802 810 792 784 816 832 820 818 818 814 813 813 812 812 814 817 816 818 819 820 822 823 824 825 825 826 825 826 827 828 828 829 829 830 832 832 832 832 832 832 832 832 832 832 832 832 831 831 831 831 831 831 831 831 831 829 828 827 826 826 826 826 826 825 824 823 823 823 822 822 820 819 818 817 817 817 817 818 817 814 813 815 815 816 815 815 814 811
781 767 758 763 769 772 770 773 788 805 808 788 775 803 832 828 821 819 816 817 818 816 815 817 818 819 820 821 822 824 825 826 827 827 827 827 827 828 829 830 830 831 832 833 833 833 833 833 834 834 834 834 834 833 833 832 831 832 832 832 832 832 832 831 830 828 827 826 825 825 825 825 824 823 822 822 823 822 822 820 819 818 818 817 816 816 816 815 813 812 812 813 812 812 812 812 808
775 756 751 761 766 769 768 770 783 789 788 785 778 791 820 830 822 817 817 818 821 819 819 819 819 820 822 822 824 825 827 828 828 829 830 828 829 829 831 832 832 833 833 833 833 834 835 835 836 836 836 836 835 835 834 833 833 833 833 833 833 832 832 831 830 828 827 826 825 824 824 825 825 824 822 821 821 821 820 820 819 818 817 817 815 814 814 813 812 810 810 809 809 809 809 809 806
761 748 750 757 760 762 762 764 773 776 783 796 791 788 813 830 821 817 820 819 822 822 820 821 820 821 823 824 825 826 828 830 830 831 831 830 831 832 833 834 834 835 835 835 835 836 837 838 838 838 837 837 837 836 835 835 834 834 834 834 833 833 832 831 830 829 828 826 825 824 824 824 824 824 823 821 820 819 819 818 818 817 816 815 814 813 812 811 810 809 808 808 807 806 806 806 804
749 745 750 753 756 757 757 762 769 776 790 800 793 784 803 828 826 819 822 820 820 821 820 820 820 821 823 824 826 827 829 831 831 831 832 832 833 833 834 835 836 836 837 837 837 838 839 839 839 839 838 838 838 837 836 835 835 834 834 834 833 832 831 831 830 829 828 826 825 824 823 823 823 823 822 822 821 819 818 818 817 816 815 814 813 812 811 810 809 808 807 806 805 804 803 803 802
744 746 752 756 760 756 756 763 767 783 796 790 784 780 788 816 824 816 815 811 809 815 818 819 820 821 823 824 826 827 829 831 831 832 833 834 834 834 835 835 836 837 839 839 839 840 840 840 840 840 839 839 838 837 836 836 835 835 834 834 833 833 832 831 830 829 828 826 825 824 823 823 823 822 821 821 820 819 818 818 816 816 814 813 812 811 810 809 808 807 805 804 803 802 801 800 800
744 748 754 764 771 766 767 771 771 790 797 779 778 781 779 799 815 810 806 804 805 811 814 816 819 821 823 824 826 827 828 830 831 832 833 834 834 835 834 835 836 838 840 841 841 841 841 840 840 840 840 840 839 838 837 836 836 836 836 835 835 834 833 832 831 829 828 826 826 825 824 823 821 820 820 820 819 819 818 817 816 815 813 812 811 810 809 808 806 805 804 802 801 800 799 798 797
747 752 759 772 783 782 783 785 783 788 785 773 775 779 781 798 809 806 804 806 809 811 812 814 816 820 822 824 825 826 828 830 831 833 833 834 835 835 835 835 837 840 842 843 842 841 841 840 839 839 840 840 839 838 837 837 837 836 836 836 835 835 834 832 831 830 829 828 827 826 824 823 821 821 821 820 819 818 817 816 815 814 812 811 810 808 807 806 804 803 802 800 799 798 797 796 795
749 754 762 774 784 791 795 794 792 787 779 777 775 773 789 808 809 804 805 808 809 810 812 814 816 820 822 824 825 826 828 830 831 833 833 835 835 836 836 837 838 841 842 843 842 841 841 840 839 839 840 840 840 839 838 838 837 837 837 836 836 835 834 833 832 831 830 830 829 827 826 824 823 822 821 820 819 818 817 815 814 813 811 810 808 807 805 804 802 801 799 798 797 795 794 793 792
746 745 752 764 769 777 788 788 786 784 781 787 787 785 802 814 810 806 806 807 808 810 812 814 818 821 823 825 827 828 830 831 831 833 834 836 836 837 838 838 838 840 842 843 842 841 841 841 840 840 840 841 840 839 839 838 838 837 837 836 836 836 835 834 833 832 832 831 830 828 827 825 824 823 821 820 819 818 816 815 813 811 810 808 807 806 804 802 800 799 797 796 795 793 792 790 788
743 739 746 757 753 755 772 777 776 775 780 796 807 808 814 814 811 809 806 807 811 812 815 818 821 823 825 829 830 831 832 832 832 833 834 836 837 838 838 838 839 841 842 843 842 842 842 841 841 841 841 841 840 840 839 838 839 838 838 837 837 837 836 836 835 834 833 831 831 829 828 826 824 823 821 820 819 817 816 814 812 810 809 808 806 804 802 801 799 797 796 794 793 791 790 788 786
741 742 747 746 739 742 761 777 779 774 781 805 818 818 818 816 815 813 809 812 814 815 819 821 824 826 828 831 833 833 834 833 834 835 835 837 837 838 838 838 840 841 842 843 842 843 843 842 842 842 841 840 840 840 840 840 840 839 839 838 838 838 837 837 836 835 834 832 831 830 828 827 825 823 822 820 819 817 816 814 812 810 808 807 806 803 801 799 797 796 794 793 791 790 788 786 784
735 745 741 736 738 742 752 771 781 777 788 812 818 815 816 816 819 817 814 816 818 818 821 823 826 828 830 833 835 835 835 835 835 836 836 837 837 837 838 840 841 842 843 843 843 843 843 843 843 842 841 841 841 842 841 841 841 840 840 839 839 839 838 838 837 836 834 833 831 830 829 827 826 824 822 820 819 817 815 813 811 810 808 807 805 803 801 799 797 795 793 792 790 789 787 785 783
724 731 728 733 749 755 756 768 779 784 804 822 818 815 815 812 815 816 814 816 818 820 824 825 828 830 831 834 835 836 836 835 836 836 836 837 837 838 840 841 843 843 844 844 844 844 843 844 843 842 842 843 843 843 843 843 842 842 842 841 840 840 839 839 838 837 835 834 833 832 830 829 827 825 823 821 819 817 815 814 812 810 808 806 805 802 800 799 797 795 793 791 789 788 786 783 782
721 725 727 732 742 749 754 763 768 781 808 822 817 816 814 806 806 808 809 812 814 819 824 825 828 830 832 834 836 836 836 836 836 836 837 838 838 840 841 843 844 844 845 845 845 845 845 845 844 844 844 845 845 845 845 844 844 843 843 842 842 842 841 840 839 838 837 835 835 833 831 830 828 826 824 821 820 818 816 814 812 810 808 807 805 802 800 798 796 795 793 790 788 786 785 782 780
727 734 738 738 738 741 748 757 760 769 796 813 817 819 811 800 799 801 804 808 810 816 821 824 828 830 832 834 835 836 836 836 837 837 837 839 839 841 842 844 845 845 845 846 845 846 846 846 846 846 847 847 847 847 846 846 846 845 845 844 844 843 843 842 840 839 838 837 836 834 833 831 829 827 825 823 821 819 817 816 813 811 810 808 806 803 801 798 796 794 792 789 787 785 783 781 779
726 733 737 739 741 744 754 764 760 761 779 797 806 810 806 800 798 798 801 805 809 815 819 824 828 829 832 834 834 835 836 837 837 837 838 839 840 842 843 844 846 846 846 847 847 848 847 847 848 849 850 849 849 848 848 847 847 846 846 846 846 845 844 843 841 840 839 838 837 836 834 832 830 829 827 825 823 821 818 816 814 813 811 810 807 805 802 799 796 794 791 789 787 784 782 780 777